Weather History for Wittering, United Kingdom

Change the Weather History Date:

Wednesday, January 2, 2013

  Actual Average Record
Temperature  
Mean Temperature 44 °F -  
Max Temperature 51 °F 42 °F 51 °F (2013)
Min Temperature 37 °F 34 °F 19 °F (1997)
Degree Days  
Heating Degree Days 21    
Moisture  
Dew Point 42 °F    
Average Humidity 90    
Maximum Humidity 100    
Minimum Humidity 81    
Precipitation  
Precipitation 0.02 in - - ()
Sea Level Pressure  
Sea Level Pressure 30.15 in    
Wind  
Wind Speed 11 mph ()    
Max Wind Speed 21 mph    
Max Gust Speed -    
Visibility 7.3 miles    
Events Rain    
Averages and records for this station are not official NWS values.
T = Trace of Precipitation, MM = Missing Value Source: Averaged Metar Reports

Daily Weather History Graph

Daily Weather History Graph

Search for Another Location

Airport:

Trip Planner

Search our weather history database for the weather conditions in past years. The results will help you decide how hot, cold, wet, or windy it might be!

Date:

Astronomy

Jan. 02, 2013 Rise Set
Actual Time 8:12 AM GMT 3:59 PM GMT
Civil Twilight 7:31 AM GMT 4:40 PM GMT
Nautical Twilight 6:47 AM GMT 5:24 PM GMT
Astronomical Twilight 6:05 AM GMT 6:06 PM GMT
Moon 10:02 PM GMT (1/2) 10:05 AM GMT (1/2)
Length of Visible Light 9h 08m
Length of Day
7h 46m
Waning Gibbous, 77% of the Moon is Illuminated
Jan 2
Waning Gibbous
Jan 5
Last Quarter
Jan 11
New
Jan 18
First Quarter
Jan 27
Full

Hourly Weather History & Observations

Time (GMT) Temp. Windchill Dew Point Humidity Pressure Visibility Wind Dir Wind Speed Gust Speed Precip Events Conditions
12:50 AM 39.2 °F 32.5 °F 37.4 °F 93% 30.01 in 6.2 mi West 10.4 mph - N/A   Mostly Cloudy
1:50 AM 37.4 °F 30.3 °F 35.6 °F 93% 30.04 in 6.2 mi West 10.4 mph - N/A   Partly Cloudy
2:50 AM 38 °F - 36 °F 89% 30.08 in 9 mi West 10.4 mph - -  
2:50 AM 37.4 °F 30.3 °F 35.6 °F 93% 30.06 in 6.2 mi West 10.4 mph - N/A   Unknown
3:50 AM 37.4 °F 30.3 °F 37.4 °F 100% 30.06 in 6.2 mi West 10.4 mph - N/A   Partly Cloudy
4:50 AM 39.2 °F 32.0 °F 35.6 °F 87% 30.09 in 6.2 mi West 11.5 mph - N/A   Unknown
5:50 AM 39 °F - 36 °F 86% 30.13 in 13 mi West 10.4 mph - -  
5:50 AM 39.2 °F 32.5 °F 35.6 °F 87% 30.09 in 6.2 mi West 10.4 mph - N/A   Mostly Cloudy
6:50 AM 41.0 °F 33.9 °F 37.4 °F 87% 30.12 in 6.2 mi West 12.7 mph - N/A   Mostly Cloudy
7:50 AM 41.0 °F 34.7 °F 37.4 °F 87% 30.15 in 6.2 mi WSW 10.4 mph - N/A   Overcast
8:50 AM 42 °F - 38 °F 82% 30.19 in 12 mi SW 8.1 mph - -   Overcast
8:50 AM 41.0 °F 35.8 °F 39.2 °F 93% 30.15 in 6.2 mi SW 8.1 mph - N/A   Overcast
9:50 AM 42.8 °F 37.5 °F 39.2 °F 87% 30.15 in 6.2 mi SW 9.2 mph - N/A   Overcast
10:50 AM 44.6 °F 38.8 °F 39.2 °F 81% 30.15 in 6.2 mi SW 11.5 mph - N/A   Mostly Cloudy
11:50 AM 45 °F - 41 °F 82% 30.18 in 9 mi SSW 8.1 mph - - Rain Light Rain Showers
11:50 AM 44.6 °F 40.2 °F 41.0 °F 87% 30.15 in 6.2 mi SSW 8.1 mph - N/A Rain Light Rain Showers
12:50 PM 44.6 °F 39.2 °F 42.8 °F 93% 30.15 in - SSW 10.4 mph - N/A Rain Rain
1:50 PM 44.6 °F 38.1 °F 42.8 °F 93% 30.12 in 6.2 mi SSW 13.8 mph - N/A   Light Drizzle
2:50 PM 46 °F - 45 °F 94% 30.16 in 6 mi SW 13.8 mph - - Rain Light Drizzle
3:50 PM 48.2 °F - 46.4 °F 93% 30.15 in 6.2 mi SW 11.5 mph - N/A   Mostly Cloudy
4:50 PM 48.2 °F - 46.4 °F 93% 30.15 in 6.2 mi WSW 12.7 mph - N/A   Mostly Cloudy
5:50 PM 49 °F - 47 °F 92% 30.17 in 9 mi WSW 15.0 mph - -   Partly Cloudy
5:50 PM 50.0 °F - 48.2 °F 94% 30.15 in 6.2 mi WSW 15.0 mph - N/A   Mostly Cloudy
6:50 PM 50.0 °F - 48.2 °F 94% 30.15 in 5.0 mi WSW 17.3 mph - N/A   Haze
7:50 PM 50.0 °F - 48.2 °F 94% 30.18 in 6.2 mi West 20.7 mph - N/A   Overcast
8:50 PM 51 °F - 49 °F 89% 30.22 in 17 mi West 20.7 mph - -   Scattered Clouds
8:50 PM 51.8 °F - 48.2 °F 88% 30.21 in 6.2 mi West 20.7 mph - N/A   Overcast
9:50 PM 50.0 °F - 48.2 °F 94% 30.21 in 4.3 mi West 18.4 mph - N/A   Mist
10:50 PM 50.0 °F - 48.2 °F 94% 30.24 in 6.2 mi WSW 18.4 mph - N/A   Unknown
11:50 PM 50 °F - 48 °F 91% 30.26 in 12 mi WSW 19.6 mph - -   Scattered Clouds
11:50 PM 50.0 °F - 48.2 °F 94% 30.24 in 6.2 mi WSW 19.6 mph - N/A   Partly Cloudy